Regional Weather Roundup
Issued by NWS

Home | Current Version | Previous Version | Text Only | Print | Product List | Glossary Off
Versions: 1 2 3 4 5 6 7 8 9 10 11 12 13 14 15 16 17 18 19 20 21 22 23 24 25 26 27 28 29 30 31 32 33 34 35 36 37 38 39 40 41 42 43 44 45 46 47 48 49 50

000
ASUS43 KFSD 250702
RWRSD

WEATHER ROUNDUP FOR SOUTH DAKOTA
NATIONAL WEATHER SERVICE SIOUX FALLS SD
100 AM CST SAT FEB 25 2017

NOTE: "FAIR" INDICATES FEW OR NO CLOUDS BELOW 12,000 FEET WITH NO
SIGNIFICANT WEATHER AND/OR OBSTRUCTIONS TO VISIBILITY.


SDZ001>005-009-010-012>017-250800-
NORTHWEST AND NORTH CENTRAL SOUTH DAKOTA

CITY           SKY/WX    TMP DP  RH WIND       PRES   REMARKS
BUFFALO          N/A     21  16  81 W6        29.92F WCI  13
FAITH            N/A     22  16  78 S13       30.02F WCI  10
MOBRIDGE       CLOUDY    22  15  75 SE3       30.05F
$$

SDZ012>016-024>037-041>051-057-063-072>074-250800-
SOUTHWEST AND SOUTH CENTRAL SOUTH DAKOTA

CITY           SKY/WX    TMP DP  RH WIND       PRES   REMARKS
RAPID CTY ARPT CLOUDY    13  10  88 CALM      30.00F
PIERRE         CLOUDY    21  14  74 S3        30.09F
CUSTER         CLOUDY    11   6  81 CALM      29.89F
ELLSWORTH AFB  CLOUDY    17  14  87 W3        29.99S
PHILIP         CLOUDY    22  17  81 S6        30.07F WCI  14
PINE RIDGE     CLOUDY     7   4  87 CALM      30.04F
SPEARFISH      CLOUDY    21  14  73 CALM      29.97S
WINNER         PTSUNNY   13   9  84 SW6       30.11S WCI   4
$$

SDZ004>011-016>023-039-040-250800-
NORTHEAST SOUTH DAKOTA

CITY           SKY/WX    TMP DP  RH WIND       PRES   REMARKS
ABERDEEN       CLEAR     15  11  83 W5        30.10S WCI   8
WATERTOWN      CLEAR     16  12  84 NW13      30.04R WCI   2
BROOKINGS      CLEAR     16  13  88 NW10      30.04R WCI   4
SISSETON         N/A     17  14  88 N12       30.07S WCI   4
$$

SDZ017-020-022-023-036>040-048>070-250800-
SOUTHEAST SOUTH DAKOTA

CITY           SKY/WX    TMP DP  RH WIND       PRES   REMARKS
SIOUX FALLS    CLEAR     17  12  80 NW12      30.06R WCI   4
HURON          CLEAR     16  14  92 W7        30.11S WCI   6
CHAMBERLAIN    CLOUDY    18  16  90 CALM      30.12S
MITCHELL       CLEAR     20  16  84 NW10      30.13R WCI   9
YANKTON        CLOUDY    18  10  73 W14       30.11S WCI   4
$$

ABBREVIATIONS USED IN REMARKS
   TC - TEMPERATURE IN CELSIUS
  WCI - WIND CHILL INDEX
   HX - HEAT INDEX
  VSB - VISIBILITY





USA.gov is the U.S. government's official web portal to all federal, state and local government web resources and services.